Time,TemperatureF,DewpointF,PressureIn,WindDirection,WindDirectionDegrees,WindSpeedMPH,WindSpeedGustMPH,Humidity,HourlyPrecipIn,Conditions,Clouds,dailyrainin,SolarRadiationWatts/m^2,SoftwareType,DateUTC
2013-02-02 00:00:00,27.4,15.7,30.19,SE,126,0.0,3.0,61,0.00,,CLR,0.02,0.00,VWS V14.01,2013-02-02 06:00:00,
2013-02-02 00:05:00,27.4,15.7,30.19,ESE,115,0.0,3.0,61,0.00,,CLR,0.00,0.00,VWS V14.01,2013-02-02 06:05:00,
2013-02-02 00:10:00,27.4,16.1,30.19,SSE,167,0.0,3.0,62,0.00,,CLR,0.00,0.00,VWS V14.01,2013-02-02 06:10:00,
2013-02-02 00:16:00,27.4,16.1,30.19,SE,126,0.0,3.0,62,0.00,,CLR,0.00,0.00,VWS V14.01,2013-02-02 06:16:00,
2013-02-02 00:21:00,27.3,16.0,30.19,ESE,111,0.0,3.0,62,0.00,,CLR,0.00,0.00,VWS V14.01,2013-02-02 06:21:00,
2013-02-02 00:26:00,27.3,16.4,30.19,ESE,113,3.0,4.0,63,0.00,,CLR,0.00,0.00,VWS V14.01,2013-02-02 06:26:00,
2013-02-02 00:31:00,27.2,15.9,30.18,SE,140,0.0,4.0,62,0.00,,CLR,0.00,0.00,VWS V14.01,2013-02-02 06:31:00,
2013-02-02 00:36:00,27.2,15.9,30.18,SE,134,0.0,2.0,62,0.00,,CLR,0.00,0.00,VWS V14.01,2013-02-02 06:36:00,
2013-02-02 00:41:00,27.2,15.9,30.18,SE,133,0.0,0.0,62,0.00,,CLR,0.00,0.00,VWS V14.01,2013-02-02 06:41:00,
2013-02-02 00:46:00,27.2,15.6,30.18,SE,132,0.0,2.0,61,0.00,,CLR,0.00,0.00,VWS V14.01,2013-02-02 06:46:00,
2013-02-02 00:51:00,27.2,15.9,30.18,South,188,0.0,2.0,62,0.00,,CLR,0.00,0.00,VWS V14.01,2013-02-02 06:51:00,
2013-02-02 00:56:00,27.2,15.9,30.18,South,187,0.0,1.0,62,0.00,,CLR,0.00,0.00,VWS V14.01,2013-02-02 06:56:00,
2013-02-02 01:01:00,27.2,15.9,30.18,South,187,0.0,2.0,62,0.00,,CLR,0.00,0.00,VWS V14.01,2013-02-02 07:01:00,
2013-02-02 01:06:00,27.2,15.9,30.18,ESE,117,0.0,3.0,62,0.00,,CLR,0.00,0.00,VWS V14.01,2013-02-02 07:06:00,
2013-02-02 01:11:00,27.3,16.0,30.18,ESE,117,0.0,1.0,62,0.00,,CLR,0.00,0.00,VWS V14.01,2013-02-02 07:11:00,
2013-02-02 01:16:00,27.4,16.1,30.18,SSE,155,0.0,2.0,62,0.00,,CLR,0.00,0.00,VWS V14.01,2013-02-02 07:16:00,
2013-02-02 01:21:00,27.4,16.1,30.18,SSE,155,0.0,0.0,62,0.00,,CLR,0.00,0.00,VWS V14.01,2013-02-02 07:21:00,
2013-02-02 01:26:00,27.5,15.8,30.18,SE,139,0.0,2.0,61,0.00,,CLR,0.00,0.00,VWS V14.01,2013-02-02 07:26:00,
2013-02-02 01:31:00,27.6,16.3,30.18,SE,139,0.0,0.0,62,0.00,,CLR,0.00,0.00,VWS V14.01,2013-02-02 07:31:00,
2013-02-02 01:36:00,27.6,16.3,30.18,SE,139,0.0,0.0,62,0.00,,CLR,0.00,0.00,VWS V14.01,2013-02-02 07:36:00,
2013-02-02 01:41:00,27.6,16.3,30.18,SE,139,0.0,0.0,62,0.00,,CLR,0.00,0.00,VWS V14.01,2013-02-02 07:41:00,
2013-02-02 01:46:00,27.6,16.3,30.17,SE,138,0.0,0.0,62,0.00,,CLR,0.00,0.00,VWS V14.01,2013-02-02 07:46:00,
2013-02-02 01:51:00,27.6,15.9,30.17,SE,139,0.0,0.0,61,0.00,,CLR,0.00,0.00,VWS V14.01,2013-02-02 07:51:00,
2013-02-02 01:56:00,27.5,16.2,30.17,SE,138,0.0,0.0,62,0.00,,CLR,0.00,0.00,VWS V14.01,2013-02-02 07:56:00,
2013-02-02 02:01:00,27.4,15.7,30.17,SE,139,0.0,1.0,61,0.00,,CLR,0.00,0.00,VWS V14.01,2013-02-02 08:01:00,
2013-02-02 02:07:00,27.3,16.0,30.17,SE,133,1.0,1.0,62,0.00,,CLR,0.00,0.00,VWS V14.01,2013-02-02 08:07:00,
2013-02-02 02:12:00,27.2,15.9,30.17,SE,133,0.0,0.0,62,0.00,,CLR,0.00,0.00,VWS V14.01,2013-02-02 08:12:00,
2013-02-02 02:17:00,27.1,15.8,30.17,SE,134,0.0,0.0,62,0.00,,CLR,0.00,0.00,VWS V14.01,2013-02-02 08:17:00,
2013-02-02 02:22:00,27.0,16.1,30.17,SE,134,0.0,1.0,63,0.00,,CLR,0.00,0.00,VWS V14.01,2013-02-02 08:22:00,
2013-02-02 02:27:00,26.9,16.0,30.17,SE,134,0.0,3.0,63,0.00,,CLR,0.00,0.00,VWS V14.01,2013-02-02 08:27:00,
2013-02-02 02:32:00,26.8,16.3,30.17,SE,133,0.0,0.0,64,0.00,,CLR,0.00,0.00,VWS V14.01,2013-02-02 08:32:00,
2013-02-02 02:37:00,26.7,15.8,30.17,SE,140,0.0,0.0,63,0.00,,CLR,0.00,0.00,VWS V14.01,2013-02-02 08:37:00,
2013-02-02 02:42:00,26.6,15.7,30.17,SE,140,0.0,2.0,63,0.00,,CLR,0.00,0.00,VWS V14.01,2013-02-02 08:42:00,
2013-02-02 02:47:00,26.5,16.0,30.17,SE,140,0.0,1.0,64,0.00,,CLR,0.00,0.00,VWS V14.01,2013-02-02 08:47:00,
2013-02-02 02:52:00,26.4,15.9,30.17,SE,140,0.0,0.0,64,0.00,,CLR,0.00,0.00,VWS V14.01,2013-02-02 08:52:00,
2013-02-02 02:57:00,26.3,15.8,30.17,SE,140,0.0,0.0,64,0.00,,CLR,0.00,0.00,VWS V14.01,2013-02-02 08:57:00,
2013-02-02 03:02:00,26.2,15.7,30.16,SE,140,0.0,0.0,64,0.00,,CLR,0.00,0.00,VWS V14.01,2013-02-02 09:02:00,
2013-02-02 03:07:00,26.2,15.7,30.16,SE,140,0.0,0.0,64,0.00,,CLR,0.00,0.00,VWS V14.01,2013-02-02 09:07:00,
2013-02-02 03:12:00,26.0,15.9,30.16,SE,140,0.0,0.0,65,0.00,,CLR,0.00,0.00,VWS V14.01,2013-02-02 09:12:00,
2013-02-02 03:17:00,25.9,15.8,30.16,SE,140,0.0,0.0,65,0.00,,CLR,0.00,0.00,VWS V14.01,2013-02-02 09:17:00,
2013-02-02 03:22:00,25.8,15.7,30.16,SE,140,0.0,0.0,65,0.00,,CLR,0.00,0.00,VWS V14.01,2013-02-02 09:22:00,
2013-02-02 03:27:00,25.7,15.9,30.16,SE,140,0.0,0.0,66,0.00,,CLR,0.00,0.00,VWS V14.01,2013-02-02 09:27:00,
2013-02-02 03:32:00,25.6,15.8,30.15,SE,140,0.0,0.0,66,0.00,,CLR,0.00,0.00,VWS V14.01,2013-02-02 09:32:00,
2013-02-02 03:37:00,25.5,15.7,30.15,SE,140,0.0,0.0,66,0.00,,CLR,0.00,0.00,VWS V14.01,2013-02-02 09:37:00,
2013-02-02 03:42:00,25.3,15.6,30.15,SE,140,0.0,0.0,66,0.00,,CLR,0.00,0.00,VWS V14.01,2013-02-02 09:42:00,
2013-02-02 03:47:00,25.2,15.8,30.15,SE,140,0.0,0.0,67,0.00,,CLR,0.00,0.00,VWS V14.01,2013-02-02 09:47:00,
2013-02-02 03:52:00,24.9,15.9,30.15,SE,140,0.0,1.0,68,0.00,,CLR,0.00,0.00,VWS V14.01,2013-02-02 09:52:00,
2013-02-02 03:57:00,24.9,15.9,30.15,SE,140,0.0,0.0,68,0.00,,CLR,0.00,0.00,VWS V14.01,2013-02-02 09:57:00,
2013-02-02 04:02:00,24.8,15.8,30.14,SE,140,0.0,0.0,68,0.00,,CLR,0.00,0.00,VWS V14.01,2013-02-02 10:02:00,
2013-02-02 04:07:00,24.6,15.9,30.14,SE,140,0.0,0.0,69,0.00,,CLR,0.00,0.00,VWS V14.01,2013-02-02 10:07:00,
2013-02-02 04:13:00,24.6,15.9,30.14,SE,140,0.0,0.0,69,0.00,,CLR,0.00,0.00,VWS V14.01,2013-02-02 10:13:00,
2013-02-02 04:18:00,24.5,16.1,30.14,SE,140,0.0,0.0,70,0.00,,CLR,0.00,0.00,VWS V14.01,2013-02-02 10:18:00,
2013-02-02 04:23:00,24.4,16.0,30.14,SE,140,0.0,1.0,70,0.00,,CLR,0.00,0.00,VWS V14.01,2013-02-02 10:23:00,
2013-02-02 04:28:00,24.3,16.3,30.14,SE,140,0.0,0.0,71,0.00,,CLR,0.00,0.00,VWS V14.01,2013-02-02 10:28:00,
2013-02-02 04:33:00,24.2,16.2,30.14,SE,140,0.0,0.0,71,0.00,,CLR,0.00,0.00,VWS V14.01,2013-02-02 10:33:00,
2013-02-02 04:38:00,24.2,16.2,30.14,SE,140,0.0,0.0,71,0.00,,CLR,0.00,0.00,VWS V14.01,2013-02-02 10:38:00,
2013-02-02 04:43:00,24.2,16.2,30.14,SE,140,0.0,0.0,71,0.00,,CLR,0.00,0.00,VWS V14.01,2013-02-02 10:43:00,
2013-02-02 04:48:00,24.1,16.1,30.13,SE,140,0.0,0.0,71,0.00,,CLR,0.00,0.00,VWS V14.01,2013-02-02 10:48:00,
2013-02-02 04:53:00,24.1,16.1,30.13,SE,140,0.0,0.0,71,0.00,,CLR,0.00,0.00,VWS V14.01,2013-02-02 10:53:00,
2013-02-02 04:58:00,24.0,16.0,30.13,SE,140,0.0,0.0,71,0.00,,CLR,0.00,0.00,VWS V14.01,2013-02-02 10:58:00,
2013-02-02 05:03:00,24.0,16.0,30.13,SE,140,0.0,0.0,71,0.00,,BKN090,0.00,0.00,VWS V14.01,2013-02-02 11:03:00,
2013-02-02 05:08:00,23.9,15.9,30.13,SE,140,0.0,0.0,71,0.00,,BKN090,0.00,0.00,VWS V14.01,2013-02-02 11:08:00,
2013-02-02 05:13:00,23.8,16.1,30.13,SE,140,0.0,0.0,72,0.00,,BKN090,0.00,0.00,VWS V14.01,2013-02-02 11:13:00,
2013-02-02 05:18:00,23.8,16.1,30.13,SE,140,0.0,0.0,72,0.00,,BKN090,0.00,0.00,VWS V14.01,2013-02-02 11:18:00,
2013-02-02 05:23:00,23.7,16.3,30.13,SE,140,0.0,0.0,73,0.00,,BKN090,0.00,0.00,VWS V14.01,2013-02-02 11:23:00,
2013-02-02 05:28:00,23.6,16.2,30.13,SE,140,0.0,0.0,73,0.00,,BKN090,0.00,0.00,VWS V14.01,2013-02-02 11:28:00,
2013-02-02 05:33:00,23.6,16.2,30.13,SE,140,0.0,0.0,73,0.00,,BKN090,0.00,0.00,VWS V14.01,2013-02-02 11:33:00,
2013-02-02 05:38:00,23.8,16.7,30.13,SE,140,0.0,1.0,74,0.00,,BKN090,0.00,0.00,VWS V14.01,2013-02-02 11:38:00,
2013-02-02 05:43:00,23.9,16.8,30.13,SE,140,0.0,0.0,74,0.00,,BKN090,0.00,0.00,VWS V14.01,2013-02-02 11:43:00,
2013-02-02 05:48:00,23.9,16.8,30.13,SE,140,0.0,0.0,74,0.00,,BKN090,0.00,0.00,VWS V14.01,2013-02-02 11:48:00,
2013-02-02 05:53:00,24.0,17.2,30.13,SE,140,0.0,0.0,75,0.00,,BKN090,0.00,0.00,VWS V14.01,2013-02-02 11:53:00,
2013-02-02 05:58:00,24.0,17.2,30.13,SE,140,0.0,1.0,75,0.00,,BKN090,0.00,0.00,VWS V14.01,2013-02-02 11:58:00,
2013-02-02 06:03:00,24.1,17.6,30.13,SE,140,0.0,0.0,76,0.00,,OVC095,0.00,0.00,VWS V14.01,2013-02-02 12:03:00,
2013-02-02 06:08:00,24.1,17.3,30.13,SE,140,0.0,2.0,75,0.00,,OVC095,0.00,0.00,VWS V14.01,2013-02-02 12:08:00,
2013-02-02 06:13:00,24.2,17.4,30.13,South,170,1.0,2.0,75,0.00,,OVC095,0.00,0.00,VWS V14.01,2013-02-02 12:13:00,
2013-02-02 06:18:00,24.3,17.2,30.13,South,170,0.0,0.0,74,0.00,,OVC095,0.00,0.00,VWS V14.01,2013-02-02 12:18:00,
2013-02-02 06:23:00,24.4,17.3,30.13,South,169,0.0,2.0,74,0.00,,OVC095,0.00,0.00,VWS V14.01,2013-02-02 12:23:00,
2013-02-02 06:28:00,24.5,17.4,30.13,South,170,0.0,1.0,74,0.00,,OVC095,0.00,0.00,VWS V14.01,2013-02-02 12:28:00,
2013-02-02 06:33:00,24.6,17.5,30.13,South,169,0.0,0.0,74,0.00,,OVC095,0.00,0.00,VWS V14.01,2013-02-02 12:33:00,
2013-02-02 06:38:00,24.7,17.9,30.13,South,170,0.0,0.0,75,0.00,,OVC095,0.00,0.00,VWS V14.01,2013-02-02 12:38:00,
2013-02-02 06:44:00,24.7,17.9,30.13,South,170,0.0,0.0,75,0.00,,OVC095,0.00,0.00,VWS V14.01,2013-02-02 12:44:00,
2013-02-02 06:49:00,24.8,18.0,30.14,South,170,0.0,0.0,75,0.00,,OVC095,0.00,0.00,VWS V14.01,2013-02-02 12:49:00,
2013-02-02 06:54:00,25.0,18.2,30.14,South,169,0.0,0.0,75,0.00,,OVC095,0.00,0.00,VWS V14.01,2013-02-02 12:54:00,
2013-02-02 06:59:00,25.1,18.3,30.14,South,170,0.0,0.0,75,0.00,,OVC095,0.00,0.00,VWS V14.01,2013-02-02 12:59:00,
2013-02-02 07:04:00,25.3,18.8,30.14,South,169,0.0,0.0,76,0.00,,OVC090,0.00,0.00,VWS V14.01,2013-02-02 13:04:00,
2013-02-02 07:09:00,25.4,18.9,30.14,South,170,0.0,2.0,76,0.00,,OVC090,0.00,0.00,VWS V14.01,2013-02-02 13:09:00,
2013-02-02 07:14:00,25.5,18.7,30.14,South,170,0.0,0.0,75,0.00,,OVC090,0.00,0.00,VWS V14.01,2013-02-02 13:14:00,
2013-02-02 07:19:00,25.6,18.5,30.14,WSW,257,0.0,5.0,74,0.00,,OVC090,0.00,5.00,VWS V14.01,2013-02-02 13:19:00,
2013-02-02 07:24:00,25.8,18.7,30.14,WSW,256,0.0,0.0,74,0.00,,OVC090,0.00,5.00,VWS V14.01,2013-02-02 13:24:00,
2013-02-02 07:29:00,25.9,19.1,30.14,WSW,257,0.0,0.0,75,0.00,,OVC090,0.00,14.00,VWS V14.01,2013-02-02 13:29:00,
2013-02-02 07:34:00,25.9,18.8,30.15,WSW,257,0.0,0.0,74,0.00,,OVC090,0.00,32.00,VWS V14.01,2013-02-02 13:34:00,
2013-02-02 07:39:00,25.9,18.8,30.15,WSW,257,0.0,0.0,74,0.00,,OVC090,0.00,47.00,VWS V14.01,2013-02-02 13:39:00,
2013-02-02 07:44:00,26.0,19.2,30.15,WSW,256,0.0,0.0,75,0.00,,OVC090,0.00,70.00,VWS V14.01,2013-02-02 13:44:00,
2013-02-02 07:49:00,26.0,19.8,30.15,WSW,256,0.0,0.0,77,0.00,,OVC090,0.00,33.00,VWS V14.01,2013-02-02 13:49:00,
2013-02-02 07:54:00,26.1,19.6,30.15,WSW,256,0.0,0.0,76,0.00,,OVC090,0.00,19.00,VWS V14.01,2013-02-02 13:54:00,
2013-02-02 07:59:00,26.2,20.0,30.15,WSW,257,0.0,0.0,77,0.00,,OVC090,0.00,21.00,VWS V14.01,2013-02-02 13:59:00,
2013-02-02 08:04:00,26.3,20.4,30.16,WSW,257,0.0,0.0,78,0.00,,OVC048,0.00,23.00,VWS V14.01,2013-02-02 14:04:00,
2013-02-02 08:09:00,26.4,20.8,30.16,WSW,256,0.0,0.0,79,0.00,,OVC048,0.00,26.00,VWS V14.01,2013-02-02 14:09:00,
2013-02-02 08:14:00,26.6,21.3,30.16,WSW,257,0.0,0.0,80,0.00,,OVC048,0.00,21.00,VWS V14.01,2013-02-02 14:14:00,
2013-02-02 08:19:00,26.8,22.0,30.15,WSW,257,0.0,0.0,82,0.00,,OVC055,0.00,28.00,VWS V14.01,2013-02-02 14:19:00,
2013-02-02 08:24:00,27.0,22.5,30.15,WSW,257,0.0,0.0,83,0.00,,OVC055,0.00,28.00,VWS V14.01,2013-02-02 14:24:00,
2013-02-02 08:29:00,27.2,23.0,30.15,WSW,256,0.0,0.0,84,0.00,,OVC055,0.00,30.00,VWS V14.01,2013-02-02 14:29:00,
2013-02-02 08:34:00,27.5,23.9,30.15,WSW,257,0.0,0.0,86,0.00,,OVC055,0.00,67.00,VWS V14.01,2013-02-02 14:34:00,
2013-02-02 08:39:00,27.7,24.1,30.15,WSW,256,0.0,1.0,86,0.00,,OVC055,0.00,49.00,VWS V14.01,2013-02-02 14:39:00,
2013-02-02 08:44:00,27.9,24.5,30.15,WSW,257,0.0,1.0,87,0.00,,OVC055,0.00,130.00,VWS V14.01,2013-02-02 14:44:00,
2013-02-02 08:49:00,28.1,24.7,30.16,WSW,257,0.0,1.0,87,0.00,,OVC110,0.00,202.00,VWS V14.01,2013-02-02 14:49:00,
2013-02-02 08:54:00,28.3,24.9,30.16,WSW,257,0.0,1.0,87,0.00,,OVC110,0.00,156.00,VWS V14.01,2013-02-02 14:54:00,
2013-02-02 08:59:00,28.4,25.0,30.16,WSW,256,0.0,0.0,87,0.00,,OVC110,0.00,90.00,VWS V14.01,2013-02-02 14:59:00,
2013-02-02 09:05:00,28.6,25.2,30.16,WSW,257,0.0,0.0,87,0.00,,OVC100,0.00,120.00,VWS V14.01,2013-02-02 15:05:00,
2013-02-02 09:10:00,28.9,25.8,30.16,WSW,256,2.0,2.0,88,0.00,,OVC100,0.00,374.00,VWS V14.01,2013-02-02 15:10:00,
2013-02-02 09:15:00,29.6,26.8,30.17,WSW,256,2.0,3.0,89,0.00,,OVC100,0.00,125.00,VWS V14.01,2013-02-02 15:15:00,
2013-02-02 09:20:00,30.1,27.3,30.17,West,264,0.0,2.0,89,0.01,,OVC100,0.01,415.00,VWS V14.01,2013-02-02 15:20:00,
2013-02-02 09:25:00,30.9,28.0,30.17,West,269,0.0,3.0,89,0.02,,OVC100,0.02,176.00,VWS V14.01,2013-02-02 15:25:00,
2013-02-02 09:30:00,31.6,28.7,30.18,NNW,334,0.0,3.0,89,0.02,,OVC100,0.02,176.00,VWS V14.01,2013-02-02 15:30:00,
2013-02-02 09:35:00,32.1,29.2,30.18,NNW,334,0.0,0.0,89,0.02,,OVC100,0.02,135.00,VWS V14.01,2013-02-02 15:35:00,
2013-02-02 09:40:00,32.6,29.7,30.18,West,279,0.0,3.0,89,0.02,,OVC100,0.02,160.00,VWS V14.01,2013-02-02 15:40:00,
2013-02-02 09:45:00,33.2,30.0,30.18,West,276,0.0,3.0,88,0.02,,OVC100,0.02,253.00,VWS V14.01,2013-02-02 15:45:00,
2013-02-02 09:50:00,33.8,30.6,30.18,WNW,292,4.0,4.0,88,0.02,,OVC100,0.02,174.00,VWS V14.01,2013-02-02 15:50:00,
2013-02-02 09:55:00,34.4,30.6,30.18,WSW,254,2.0,4.0,86,0.02,,OVC100,0.02,174.00,VWS V14.01,2013-02-02 15:55:00,
2013-02-02 10:00:00,34.8,30.2,30.17,West,279,3.0,8.0,83,0.02,,OVC100,0.02,232.00,VWS V14.01,2013-02-02 16:00:00,
2013-02-02 10:05:00,35.2,30.3,30.17,West,271,1.0,6.0,82,0.02,,FEW120,0.02,165.00,VWS V14.01,2013-02-02 16:05:00,
2013-02-02 10:10:00,35.6,30.4,30.17,West,275,1.0,2.0,81,0.02,,FEW120,0.02,239.00,VWS V14.01,2013-02-02 16:10:00,
2013-02-02 10:15:00,36.2,30.9,30.18,West,263,3.0,5.0,81,0.02,,FEW120,0.02,578.00,VWS V14.01,2013-02-02 16:15:00,
2013-02-02 10:20:00,36.8,30.9,30.18,WNW,287,2.0,5.0,79,0.02,,FEW120,0.02,338.00,VWS V14.01,2013-02-02 16:20:00,
2013-02-02 10:25:00,37.5,31.9,30.18,West,261,3.0,4.0,80,0.01,,FEW120,0.02,608.00,VWS V14.01,2013-02-02 16:25:00,
2013-02-02 10:30:00,38.2,31.6,30.18,WNW,282,0.0,8.0,77,0.00,,FEW120,0.02,671.00,VWS V14.01,2013-02-02 16:30:00,
2013-02-02 10:35:00,38.8,31.6,30.18,WSW,257,4.0,6.0,75,0.00,,FEW120,0.02,346.00,VWS V14.01,2013-02-02 16:35:00,
2013-02-02 10:40:00,39.3,32.0,30.18,NW,319,3.0,6.0,75,0.00,,FEW120,0.02,258.00,VWS V14.01,2013-02-02 16:40:00,
2013-02-02 10:45:00,39.5,30.9,30.18,West,265,1.0,6.0,71,0.00,,FEW120,0.02,209.00,VWS V14.01,2013-02-02 16:45:00,
2013-02-02 10:50:00,39.9,32.3,30.18,West,271,3.0,3.0,74,0.00,,FEW120,0.02,441.00,VWS V14.01,2013-02-02 16:50:00,
2013-02-02 10:55:00,40.4,31.8,30.18,West,264,0.0,8.0,71,0.00,,FEW120,0.02,742.00,VWS V14.01,2013-02-02 16:55:00,
2013-02-02 11:01:00,40.8,32.8,30.18,WNW,298,2.0,5.0,73,0.00,,FEW120,0.02,265.00,VWS V14.01,2013-02-02 17:01:00,
2013-02-02 11:06:00,41.2,32.2,30.18,West,270,1.0,7.0,70,0.00,,CLR,0.02,577.00,VWS V14.01,2013-02-02 17:06:00,
2013-02-02 11:11:00,41.7,32.3,30.18,WSW,248,4.0,7.0,69,0.00,,CLR,0.02,573.00,VWS V14.01,2013-02-02 17:11:00,
2013-02-02 11:16:00,42.1,32.3,30.17,WSW,244,8.0,11.0,68,0.00,,CLR,0.02,578.00,VWS V14.01,2013-02-02 17:16:00,
2013-02-02 11:21:00,42.5,32.7,30.17,WNW,296,3.0,3.0,68,0.00,,CLR,0.02,584.00,VWS V14.01,2013-02-02 17:21:00,
2013-02-02 11:26:00,43.1,32.9,30.17,NW,311,0.0,0.0,67,0.00,,CLR,0.02,589.00,VWS V14.01,2013-02-02 17:26:00,
2013-02-02 11:31:00,43.8,32.4,30.17,NW,304,2.0,2.0,64,0.00,,CLR,0.02,596.00,VWS V14.01,2013-02-02 17:31:00,
2013-02-02 11:36:00,44.3,32.5,30.17,West,273,5.0,6.0,63,0.00,,CLR,0.02,599.00,VWS V14.01,2013-02-02 17:36:00,
2013-02-02 11:41:00,44.7,32.5,30.17,WSW,246,2.0,3.0,62,0.00,,CLR,0.02,605.00,VWS V14.01,2013-02-02 17:41:00,
2013-02-02 11:46:00,45.0,33.2,30.16,NNW,344,3.0,4.0,63,0.00,,CLR,0.02,610.00,VWS V14.01,2013-02-02 17:46:00,
2013-02-02 11:51:00,45.4,32.8,30.16,WNW,284,0.0,2.0,61,0.00,,CLR,0.02,612.00,VWS V14.01,2013-02-02 17:51:00,
2013-02-02 11:56:00,45.9,33.2,30.16,West,263,5.0,5.0,61,0.00,,CLR,0.02,617.00,VWS V14.01,2013-02-02 17:56:00,
2013-02-02 12:01:00,46.3,33.2,30.16,WNW,299,3.0,6.0,60,0.00,,CLR,0.02,619.00,VWS V14.01,2013-02-02 18:01:00,
2013-02-02 12:06:00,46.6,32.6,30.16,WNW,292,0.0,0.0,58,0.00,,CLR,0.02,621.00,VWS V14.01,2013-02-02 18:06:00,
2013-02-02 12:11:00,46.7,32.7,30.16,West,269,5.0,5.0,58,0.00,,CLR,0.02,624.00,VWS V14.01,2013-02-02 18:11:00,
2013-02-02 12:16:00,46.9,32.9,30.16,WSW,258,5.0,7.0,58,0.00,,CLR,0.02,624.00,VWS V14.01,2013-02-02 18:16:00,
2013-02-02 12:21:00,47.4,34.2,30.16,West,264,1.0,3.0,60,0.00,,CLR,0.02,626.00,VWS V14.01,2013-02-02 18:21:00,
2013-02-02 12:26:00,47.6,33.1,30.16,WSW,245,5.0,5.0,57,0.00,,CLR,0.02,628.00,VWS V14.01,2013-02-02 18:26:00,
2013-02-02 12:31:00,47.9,33.8,30.16,WNW,303,2.0,7.0,58,0.00,,CLR,0.02,624.00,VWS V14.01,2013-02-02 18:31:00,
2013-02-02 12:36:00,48.3,34.2,30.16,WNW,295,2.0,6.0,58,0.00,,CLR,0.02,626.00,VWS V14.01,2013-02-02 18:36:00,
2013-02-02 12:41:00,48.5,34.8,30.16,West,266,1.0,4.0,59,0.00,,CLR,0.02,624.00,VWS V14.01,2013-02-02 18:41:00,
2013-02-02 12:46:00,48.9,33.9,30.15,NW,313,1.0,2.0,56,0.00,,CLR,0.02,622.00,VWS V14.01,2013-02-02 18:46:00,
2013-02-02 12:51:00,49.2,34.2,30.15,West,267,5.0,7.0,56,0.00,,CLR,0.02,622.00,VWS V14.01,2013-02-02 18:51:00,
2013-02-02 12:56:00,49.4,33.9,30.15,West,259,6.0,8.0,55,0.00,,CLR,0.02,622.00,VWS V14.01,2013-02-02 18:56:00,
2013-02-02 13:01:00,49.1,33.7,30.14,North,355,0.0,3.0,55,0.00,,CLR,0.02,617.00,VWS V14.01,2013-02-02 19:01:00,
2013-02-02 13:06:00,49.2,34.6,30.14,NNW,344,3.0,3.0,57,0.00,,CLR,0.02,613.00,VWS V14.01,2013-02-02 19:06:00,
2013-02-02 13:11:00,49.6,35.0,30.14,WSW,252,2.0,5.0,57,0.00,,CLR,0.02,612.00,VWS V14.01,2013-02-02 19:11:00,
2013-02-02 13:16:00,50.0,35.4,30.14,WSW,258,5.0,9.0,57,0.00,,CLR,0.02,606.00,VWS V14.01,2013-02-02 19:16:00,
2013-02-02 13:21:00,50.0,34.9,30.14,WSW,240,3.0,3.0,56,0.00,,CLR,0.02,603.00,VWS V14.01,2013-02-02 19:21:00,
2013-02-02 13:26:00,50.2,34.2,30.14,WSW,237,6.0,6.0,54,0.00,,CLR,0.02,598.00,VWS V14.01,2013-02-02 19:26:00,
2013-02-02 13:31:00,50.2,35.6,30.14,NW,323,1.0,6.0,57,0.00,,CLR,0.02,594.00,VWS V14.01,2013-02-02 19:31:00,
2013-02-02 13:37:00,50.4,35.8,30.14,WNW,298,2.0,7.0,57,0.00,,CLR,0.02,589.00,VWS V14.01,2013-02-02 19:37:00,
2013-02-02 13:42:00,50.9,34.9,30.14,NW,317,1.0,5.0,54,0.00,,CLR,0.02,584.00,VWS V14.01,2013-02-02 19:42:00,
2013-02-02 13:47:00,50.9,35.3,30.13,WSW,250,6.0,6.0,55,0.00,,CLR,0.02,575.00,VWS V14.01,2013-02-02 19:47:00,
2013-02-02 13:52:00,50.9,34.4,30.13,West,262,9.0,9.0,53,0.00,,CLR,0.02,568.00,VWS V14.01,2013-02-02 19:52:00,
2013-02-02 13:57:00,50.9,35.3,30.13,West,261,9.0,9.0,55,0.00,,CLR,0.02,561.00,VWS V14.01,2013-02-02 19:57:00,
2013-02-02 14:02:00,50.5,34.5,30.12,WSW,253,2.0,9.0,54,0.00,,CLR,0.02,555.00,VWS V14.01,2013-02-02 20:02:00,
2013-02-02 14:07:00,50.4,35.3,30.12,West,266,2.0,5.0,56,0.00,,CLR,0.02,548.00,VWS V14.01,2013-02-02 20:07:00,
2013-02-02 14:12:00,50.9,36.2,30.12,NW,315,0.0,5.0,57,0.00,,CLR,0.02,541.00,VWS V14.01,2013-02-02 20:12:00,
2013-02-02 14:17:00,51.4,35.8,30.12,NNW,327,3.0,6.0,55,0.00,,CLR,0.02,536.00,VWS V14.01,2013-02-02 20:17:00,
2013-02-02 14:22:00,51.6,36.0,30.12,North,350,1.0,6.0,55,0.00,,CLR,0.02,527.00,VWS V14.01,2013-02-02 20:22:00,
2013-02-02 14:27:00,51.6,35.0,30.12,WSW,256,3.0,6.0,53,0.00,,CLR,0.02,519.00,VWS V14.01,2013-02-02 20:27:00,
2013-02-02 14:32:00,51.6,35.0,30.12,WSW,249,5.0,9.0,53,0.00,,CLR,0.02,522.00,VWS V14.01,2013-02-02 20:32:00,
2013-02-02 14:37:00,51.4,35.3,30.12,WNW,292,0.0,8.0,54,0.00,,CLR,0.02,494.00,VWS V14.01,2013-02-02 20:37:00,
2013-02-02 14:42:00,51.3,35.2,30.12,NNW,333,4.0,10.0,54,0.00,,CLR,0.02,489.00,VWS V14.01,2013-02-02 20:42:00,
2013-02-02 14:47:00,51.0,35.0,30.12,SW,236,4.0,8.0,54,0.00,,CLR,0.02,468.00,VWS V14.01,2013-02-02 20:47:00,
2013-02-02 14:52:00,50.9,34.9,30.12,West,259,4.0,10.0,54,0.00,,CLR,0.02,462.00,VWS V14.01,2013-02-02 20:52:00,
2013-02-02 14:57:00,51.0,35.4,30.12,SW,227,5.0,8.0,55,0.00,,CLR,0.02,452.00,VWS V14.01,2013-02-02 20:57:00,
2013-02-02 15:02:00,51.3,35.7,30.12,West,272,3.0,5.0,55,0.00,,CLR,0.02,443.00,VWS V14.01,2013-02-02 21:02:00,
2013-02-02 15:07:00,51.7,35.6,30.12,WSW,250,0.0,5.0,54,0.00,,CLR,0.02,429.00,VWS V14.01,2013-02-02 21:07:00,
2013-02-02 15:12:00,52.0,36.8,30.12,NW,324,0.0,4.0,56,0.00,,CLR,0.02,422.00,VWS V14.01,2013-02-02 21:12:00,
2013-02-02 15:17:00,52.4,36.3,30.12,WNW,303,2.0,10.0,54,0.00,,CLR,0.02,415.00,VWS V14.01,2013-02-02 21:17:00,
2013-02-02 15:22:00,52.6,36.9,30.12,NW,310,2.0,5.0,55,0.00,,CLR,0.02,410.00,VWS V14.01,2013-02-02 21:22:00,
2013-02-02 15:27:00,52.8,36.2,30.12,NNW,344,4.0,6.0,53,0.00,,CLR,0.02,401.00,VWS V14.01,2013-02-02 21:27:00,
2013-02-02 15:32:00,52.8,36.2,30.12,WSW,237,0.0,10.0,53,0.00,,CLR,0.02,74.00,VWS V14.01,2013-02-02 21:32:00,
2013-02-02 15:37:00,52.8,36.6,30.12,WNW,296,0.0,7.0,54,0.00,,CLR,0.02,411.00,VWS V14.01,2013-02-02 21:37:00,
2013-02-02 15:42:00,52.7,35.6,30.12,WNW,286,2.0,11.0,52,0.00,,CLR,0.02,394.00,VWS V14.01,2013-02-02 21:42:00,
2013-02-02 15:47:00,52.3,35.2,30.12,WSW,249,3.0,10.0,52,0.00,,CLR,0.02,63.00,VWS V14.01,2013-02-02 21:47:00,
2013-02-02 15:52:00,52.0,35.9,30.12,WSW,253,3.0,6.0,54,0.00,,CLR,0.02,316.00,VWS V14.01,2013-02-02 21:52:00,
2013-02-02 15:57:00,51.9,35.8,30.12,West,272,7.0,11.0,54,0.00,,CLR,0.02,313.00,VWS V14.01,2013-02-02 21:57:00,
2013-02-02 16:03:00,51.8,35.2,30.13,West,265,4.0,11.0,53,0.00,,FEW041,0.02,301.00,VWS V14.01,2013-02-02 22:03:00,
2013-02-02 16:08:00,51.7,35.6,30.13,North,355,0.0,8.0,54,0.00,,FEW041,0.02,279.00,VWS V14.01,2013-02-02 22:08:00,
2013-02-02 16:13:00,51.8,36.2,30.13,WSW,250,2.0,6.0,55,0.00,,FEW041,0.02,267.00,VWS V14.01,2013-02-02 22:13:00,
2013-02-02 16:18:00,51.9,35.8,30.13,South,178,1.0,5.0,54,0.00,,FEW041,0.02,232.00,VWS V14.01,2013-02-02 22:18:00,
2013-02-02 16:23:00,51.5,35.0,30.13,NW,305,0.0,9.0,53,0.00,,FEW041,0.02,220.00,VWS V14.01,2013-02-02 22:23:00,
2013-02-02 16:28:00,50.9,34.9,30.13,WSW,248,8.0,11.0,54,0.00,,FEW041,0.02,206.00,VWS V14.01,2013-02-02 22:28:00,
2013-02-02 16:33:00,50.5,34.5,30.13,West,275,2.0,13.0,54,0.00,,FEW041,0.02,186.00,VWS V14.01,2013-02-02 22:33:00,
2013-02-02 16:38:00,50.2,34.7,30.13,West,272,3.0,10.0,55,0.00,,FEW041,0.02,171.00,VWS V14.01,2013-02-02 22:38:00,
2013-02-02 16:43:00,50.0,34.5,30.13,WNW,282,4.0,8.0,55,0.00,,FEW041,0.02,162.00,VWS V14.01,2013-02-02 22:43:00,
2013-02-02 16:48:00,49.9,34.8,30.13,West,277,1.0,10.0,56,0.00,,FEW041,0.02,142.00,VWS V14.01,2013-02-02 22:48:00,
2013-02-02 16:53:00,49.8,34.8,30.13,WSW,256,3.0,5.0,56,0.00,,FEW041,0.02,128.00,VWS V14.01,2013-02-02 22:53:00,
2013-02-02 16:58:00,49.7,35.1,30.13,West,259,6.0,7.0,57,0.00,,FEW041,0.02,105.00,VWS V14.01,2013-02-02 22:58:00,
2013-02-02 17:03:00,49.4,34.8,30.13,WNW,302,3.0,10.0,57,0.00,,CLR,0.02,77.00,VWS V14.01,2013-02-02 23:03:00,
2013-02-02 17:08:00,49.1,34.5,30.13,West,259,0.0,7.0,57,0.00,,CLR,0.02,39.00,VWS V14.01,2013-02-02 23:08:00,
2013-02-02 17:13:00,48.7,34.6,30.13,WSW,237,3.0,7.0,58,0.00,,CLR,0.02,39.00,VWS V14.01,2013-02-02 23:13:00,
2013-02-02 17:18:00,48.3,34.7,30.13,SW,223,3.0,5.0,59,0.00,,CLR,0.02,23.00,VWS V14.01,2013-02-02 23:18:00,
2013-02-02 17:23:00,48.0,34.8,30.13,WSW,254,4.0,7.0,60,0.00,,CLR,0.02,18.00,VWS V14.01,2013-02-02 23:23:00,
2013-02-02 17:28:00,47.7,34.5,30.13,WSW,250,5.0,6.0,60,0.00,,CLR,0.02,12.00,VWS V14.01,2013-02-02 23:28:00,
2013-02-02 17:33:00,47.3,34.5,30.13,West,280,2.0,4.0,61,0.00,,CLR,0.02,9.00,VWS V14.01,2013-02-02 23:33:00,
2013-02-02 17:38:00,47.1,34.4,30.13,West,279,0.0,6.0,61,0.00,,CLR,0.02,5.00,VWS V14.01,2013-02-02 23:38:00,
2013-02-02 17:43:00,46.8,34.1,30.13,WNW,284,1.0,5.0,61,0.00,,CLR,0.02,0.00,VWS V14.01,2013-02-02 23:43:00,
2013-02-02 17:48:00,46.5,33.8,30.13,West,270,2.0,4.0,61,0.00,,CLR,0.02,0.00,VWS V14.01,2013-02-02 23:48:00,
2013-02-02 17:53:00,46.3,34.0,30.13,West,263,1.0,4.0,62,0.00,,CLR,0.02,0.00,VWS V14.01,2013-02-02 23:53:00,
2013-02-02 17:58:00,46.1,33.8,30.13,West,263,0.0,1.0,62,0.00,,CLR,0.02,0.00,VWS V14.01,2013-02-02 23:58:00,
2013-02-02 18:03:00,45.8,33.9,30.13,West,263,0.0,2.0,63,0.00,,CLR,0.02,0.00,VWS V14.01,2013-02-03 00:03:00,
2013-02-02 18:08:00,45.5,34.0,30.13,West,263,0.0,3.0,64,0.00,,CLR,0.02,0.00,VWS V14.01,2013-02-03 00:08:00,
2013-02-02 18:13:00,45.0,34.0,30.13,West,262,0.0,3.0,65,0.00,,CLR,0.02,0.00,VWS V14.01,2013-02-03 00:13:00,
2013-02-02 18:18:00,44.8,33.8,30.12,SW,230,0.0,3.0,65,0.00,,CLR,0.02,0.00,VWS V14.01,2013-02-03 00:18:00,
2013-02-02 18:23:00,44.5,33.9,30.12,WSW,240,0.0,2.0,66,0.00,,CLR,0.02,0.00,VWS V14.01,2013-02-03 00:23:00,
2013-02-02 18:28:00,44.1,33.5,30.12,WSW,251,0.0,3.0,66,0.00,,CLR,0.02,0.00,VWS V14.01,2013-02-03 00:28:00,
2013-02-02 18:34:00,43.7,33.5,30.13,West,272,3.0,3.0,67,0.00,,CLR,0.02,0.00,VWS V14.01,2013-02-03 00:34:00,
2013-02-02 18:39:00,43.5,33.3,30.13,West,279,0.0,2.0,67,0.00,,CLR,0.02,0.00,VWS V14.01,2013-02-03 00:39:00,
2013-02-02 18:44:00,43.4,33.6,30.13,West,279,0.0,1.0,68,0.00,,CLR,0.02,0.00,VWS V14.01,2013-02-03 00:44:00,
2013-02-02 18:49:00,43.2,33.4,30.13,West,279,1.0,1.0,68,0.00,,CLR,0.02,0.00,VWS V14.01,2013-02-03 00:49:00,
2013-02-02 18:54:00,43.0,33.2,30.13,West,279,0.0,1.0,68,0.00,,CLR,0.02,0.00,VWS V14.01,2013-02-03 00:54:00,
2013-02-02 18:59:00,42.9,33.1,30.13,West,279,0.0,0.0,68,0.00,,CLR,0.02,0.00,VWS V14.01,2013-02-03 00:59:00,
2013-02-02 19:04:00,42.7,33.2,30.13,West,279,0.0,2.0,69,0.00,,CLR,0.02,0.00,VWS V14.01,2013-02-03 01:04:00,
2013-02-02 19:09:00,42.5,33.1,30.13,West,279,0.0,0.0,69,0.00,,CLR,0.02,0.00,VWS V14.01,2013-02-03 01:09:00,
2013-02-02 19:14:00,42.4,33.0,30.13,West,279,0.0,0.0,69,0.00,,CLR,0.02,0.00,VWS V14.01,2013-02-03 01:14:00,
2013-02-02 19:19:00,42.2,32.8,30.13,West,279,0.0,2.0,69,0.00,,CLR,0.02,0.00,VWS V14.01,2013-02-03 01:19:00,
2013-02-02 19:24:00,42.0,32.9,30.13,West,279,0.0,0.0,70,0.00,,CLR,0.02,0.00,VWS V14.01,2013-02-03 01:24:00,
2013-02-02 19:29:00,41.8,32.8,30.13,West,276,2.0,3.0,70,0.00,,CLR,0.02,0.00,VWS V14.01,2013-02-03 01:29:00,
2013-02-02 19:34:00,41.6,32.6,30.12,West,275,1.0,1.0,70,0.00,,CLR,0.02,0.00,VWS V14.01,2013-02-03 01:34:00,
2013-02-02 19:39:00,41.4,32.4,30.12,West,275,0.0,0.0,70,0.00,,CLR,0.02,0.00,VWS V14.01,2013-02-03 01:39:00,
2013-02-02 19:44:00,41.2,32.5,30.12,West,275,0.0,1.0,71,0.00,,CLR,0.02,0.00,VWS V14.01,2013-02-03 01:44:00,
2013-02-02 19:49:00,41.0,32.3,30.12,SW,230,0.0,2.0,71,0.00,,CLR,0.02,0.00,VWS V14.01,2013-02-03 01:49:00,
2013-02-02 19:54:00,40.9,32.2,30.12,SW,232,0.0,1.0,71,0.00,,CLR,0.02,0.00,VWS V14.01,2013-02-03 01:54:00,
2013-02-02 19:59:00,40.7,32.4,30.12,SW,232,0.0,0.0,72,0.00,,CLR,0.02,0.00,VWS V14.01,2013-02-03 01:59:00,
2013-02-02 20:04:00,40.5,32.2,30.12,SW,232,0.0,2.0,72,0.00,,CLR,0.02,0.00,VWS V14.01,2013-02-03 02:04:00,
2013-02-02 20:09:00,40.4,32.1,30.12,SW,232,0.0,2.0,72,0.00,,CLR,0.02,0.00,VWS V14.01,2013-02-03 02:09:00,
2013-02-02 20:14:00,40.3,32.0,30.12,SW,232,0.0,3.0,72,0.00,,CLR,0.02,0.00,VWS V14.01,2013-02-03 02:14:00,
2013-02-02 20:19:00,40.2,31.9,30.13,SW,232,0.0,2.0,72,0.00,,CLR,0.02,0.00,VWS V14.01,2013-02-03 02:19:00,
2013-02-02 20:24:00,40.1,32.2,30.13,SW,232,2.0,2.0,73,0.00,,CLR,0.02,0.00,VWS V14.01,2013-02-03 02:24:00,
2013-02-02 20:29:00,40.0,32.1,30.13,SW,232,1.0,3.0,73,0.00,,CLR,0.02,0.00,VWS V14.01,2013-02-03 02:29:00,
2013-02-02 20:34:00,39.9,32.0,30.13,SW,232,0.0,2.0,73,0.00,,CLR,0.02,0.00,VWS V14.01,2013-02-03 02:34:00,
2013-02-02 20:39:00,39.8,31.9,30.13,SW,232,0.0,2.0,73,0.00,,CLR,0.02,0.00,VWS V14.01,2013-02-03 02:39:00,
2013-02-02 20:44:00,39.7,31.8,30.13,SW,232,0.0,2.0,73,0.00,,CLR,0.02,0.00,VWS V14.01,2013-02-03 02:44:00,
2013-02-02 20:49:00,39.6,31.7,30.12,SW,232,0.0,0.0,73,0.00,,CLR,0.02,0.00,VWS V14.01,2013-02-03 02:49:00,
2013-02-02 20:54:00,39.5,31.6,30.12,SW,232,0.0,1.0,73,0.00,,CLR,0.02,0.00,VWS V14.01,2013-02-03 02:54:00,
2013-02-02 21:00:00,39.3,31.4,30.12,SW,232,0.0,3.0,73,0.00,,CLR,0.02,0.00,VWS V14.01,2013-02-03 03:00:00,
2013-02-02 21:05:00,39.2,31.6,30.12,SW,232,0.0,2.0,74,0.00,,CLR,0.02,0.00,VWS V14.01,2013-02-03 03:05:00,
2013-02-02 21:10:00,39.2,31.6,30.12,SW,232,0.0,2.0,74,0.00,,CLR,0.02,0.00,VWS V14.01,2013-02-03 03:10:00,
2013-02-02 21:15:00,39.2,31.6,30.12,SW,232,0.0,1.0,74,0.00,,CLR,0.02,0.00,VWS V14.01,2013-02-03 03:15:00,
2013-02-02 21:20:00,39.1,31.5,30.12,SW,233,2.0,2.0,74,0.00,,CLR,0.02,0.00,VWS V14.01,2013-02-03 03:20:00,
2013-02-02 21:25:00,38.9,31.3,30.12,SW,232,0.0,2.0,74,0.00,,CLR,0.02,0.00,VWS V14.01,2013-02-03 03:25:00,
2013-02-02 21:30:00,38.9,31.3,30.11,SW,232,0.0,0.0,74,0.00,,CLR,0.02,0.00,VWS V14.01,2013-02-03 03:30:00,
2013-02-02 21:35:00,38.8,31.2,30.11,SW,232,0.0,2.0,74,0.00,,CLR,0.02,0.00,VWS V14.01,2013-02-03 03:35:00,
2013-02-02 21:40:00,38.7,31.5,30.11,SW,232,0.0,2.0,75,0.00,,CLR,0.02,0.00,VWS V14.01,2013-02-03 03:40:00,
2013-02-02 21:45:00,38.6,31.4,30.12,SW,232,0.0,2.0,75,0.00,,CLR,0.02,0.00,VWS V14.01,2013-02-03 03:45:00,
2013-02-02 21:50:00,38.6,31.4,30.12,SW,233,0.0,1.0,75,0.00,,CLR,0.02,0.00,VWS V14.01,2013-02-03 03:50:00,
2013-02-02 21:55:00,38.5,31.3,30.12,SW,232,0.0,0.0,75,0.00,,CLR,0.02,0.00,VWS V14.01,2013-02-03 03:55:00,
2013-02-02 22:00:00,38.4,31.2,30.11,SW,232,0.0,0.0,75,0.00,,CLR,0.02,0.00,VWS V14.01,2013-02-03 04:00:00,
2013-02-02 22:05:00,38.4,31.2,30.11,SW,233,1.0,2.0,75,0.00,,CLR,0.02,0.00,VWS V14.01,2013-02-03 04:05:00,
2013-02-02 22:10:00,38.2,31.0,30.11,SW,232,0.0,2.0,75,0.00,,CLR,0.02,0.00,VWS V14.01,2013-02-03 04:10:00,
2013-02-02 22:15:00,38.2,31.0,30.11,SW,232,0.0,3.0,75,0.00,,CLR,0.02,0.00,VWS V14.01,2013-02-03 04:15:00,
2013-02-02 22:20:00,38.2,31.0,30.11,SW,232,0.0,2.0,75,0.00,,CLR,0.02,0.00,VWS V14.01,2013-02-03 04:20:00,
2013-02-02 22:25:00,38.2,31.0,30.11,SW,232,0.0,2.0,75,0.00,,CLR,0.02,0.00,VWS V14.01,2013-02-03 04:25:00,
2013-02-02 22:30:00,38.2,31.0,30.10,SW,232,0.0,1.0,75,0.00,,CLR,0.02,0.00,VWS V14.01,2013-02-03 04:30:00,
2013-02-02 22:35:00,38.2,31.0,30.10,SW,232,0.0,2.0,75,0.00,,CLR,0.02,0.00,VWS V14.01,2013-02-03 04:35:00,
2013-02-02 22:40:00,38.2,31.0,30.10,SW,232,0.0,1.0,75,0.00,,CLR,0.02,0.00,VWS V14.01,2013-02-03 04:40:00,
2013-02-02 22:45:00,38.1,30.9,30.10,SW,218,0.0,4.0,75,0.00,,CLR,0.02,0.00,VWS V14.01,2013-02-03 04:45:00,
2013-02-02 22:50:00,38.1,31.2,30.10,SSW,206,3.0,4.0,76,0.00,,CLR,0.02,0.00,VWS V14.01,2013-02-03 04:50:00,
2013-02-02 22:55:00,38.1,31.2,30.10,WSW,249,0.0,2.0,76,0.00,,CLR,0.02,0.00,VWS V14.01,2013-02-03 04:55:00,
2013-02-02 23:00:00,38.2,31.0,30.10,WSW,246,0.0,3.0,75,0.00,,CLR,0.02,0.00,VWS V14.01,2013-02-03 05:00:00,
2013-02-02 23:01:00,38.2,31.0,30.10,WSW,247,0.0,3.0,75,0.00,,CLR,0.02,0.00,VWS V14.01,2013-02-03 05:01:00,
2013-02-02 23:05:00,38.3,31.1,30.10,WSW,257,0.0,4.0,75,0.00,,CLR,0.02,0.00,VWS V14.01,2013-02-03 05:05:00,
2013-02-02 23:07:00,38.4,31.2,30.10,SW,234,1.0,5.0,75,0.00,,CLR,0.02,0.00,VWS V14.01,2013-02-03 05:07:00,
2013-02-02 23:12:00,38.7,31.1,30.10,West,270,0.0,1.0,74,0.00,,CLR,0.02,0.00,VWS V14.01,2013-02-03 05:12:00,
2013-02-02 23:17:00,38.8,31.2,30.10,WSW,240,0.0,3.0,74,0.00,,CLR,0.02,0.00,VWS V14.01,2013-02-03 05:17:00,
2013-02-02 23:22:00,39.0,31.4,30.10,SSW,199,0.0,5.0,74,0.00,,CLR,0.02,0.00,VWS V14.01,2013-02-03 05:22:00,
2013-02-02 23:27:00,39.2,31.3,30.10,SW,225,4.0,5.0,73,0.00,,CLR,0.02,0.00,VWS V14.01,2013-02-03 05:27:00,
2013-02-02 23:32:00,39.3,31.4,30.09,SW,229,1.0,5.0,73,0.00,,CLR,0.02,0.00,VWS V14.01,2013-02-03 05:32:00,
2013-02-02 23:37:00,39.4,31.1,30.09,WSW,246,0.0,6.0,72,0.00,,CLR,0.02,0.00,VWS V14.01,2013-02-03 05:37:00,
2013-02-02 23:42:00,39.6,31.3,30.09,WSW,238,1.0,7.0,72,0.00,,CLR,0.02,0.00,VWS V14.01,2013-02-03 05:42:00,
2013-02-02 23:47:00,39.7,31.4,30.08,West,259,1.0,4.0,72,0.00,,CLR,0.02,0.00,VWS V14.01,2013-02-03 05:47:00,
2013-02-02 23:52:00,39.7,31.1,30.08,WSW,240,0.0,4.0,71,0.00,,CLR,0.02,0.00,VWS V14.01,2013-02-03 05:52:00,
2013-02-02 23:57:00,39.7,31.1,30.08,SW,228,0.0,6.0,71,0.00,,CLR,0.02,0.00,VWS V14.01,2013-02-03 05:57:00,